{"data":{"norad_id":67295,"epoch":"2026-09-20T22:35:24.813888Z","epoch_age_seconds":64939,"freshness":"FRESH","line1":"1 67295U 25313AZ  26263.94125942  .00004391  00000+0  17702-3 0  9994","line2":"2 67295  97.3862 337.6457 0010324  18.1243 342.0361 15.25304774 40562","mean_motion":15.25304774,"eccentricity":0.0010324,"inclination_deg":97.3862,"raan_deg":337.6457,"arg_perigee_deg":18.1243,"mean_anomaly_deg":342.0361,"bstar":0.00017702,"rev_number":4056,"period_min":94.407362026653,"perigee_km":482.77987761003,"apogee_km":496.96093930702,"semimajor_km":6868.0074084585,"source":"CELESTRAK","updated_at":"2026-09-21T09:00:16.551308Z"}}